Volver al catálogo

STARLINK-5751

ActivoComunicacionesVLEO
NORAD 55576·PAYLOAD·🇺🇸 United States

Lanzado Feb 12, 2023 desde Cape Canaveral Space Force Station

Loading…

Próximos Pases (próximas 24 horas)

TLE

ActualizadoSource: CelesTrak SupGP

Época: Sep 14, 2026, 21:08 UTC

1 55576C 23020H   26257.88104167 -.00015831  00000+0 -57341-3 0  2571
2 55576  43.0027 350.9609 0001864 274.2457 126.0278 15.27585650    19

Sigue STARLINK-5751 en tiempo real con AllMySat

Download on the App Store